Hourly Data Report for May 12, 2012

All times are specified in Local Standard Time (LST). Add 1 hour to adjust for Daylight Saving Time where and when it is observed.

ST. JOHN'S INTL A
NEWFOUNDLAND

47°37'07.000" N
52°45'09.000" W
140.50 m
8403505
71801
YYT

Download Data

Hourly Data (May 2012)
Hourly Data Report for May 12, 2012
Temp Definition
°C
Dew Point Temp Definition
°C
Rel Hum Definition
%
Wind Dir Definition
10's deg

Wind Spd Definition
km/h
Visibility Definition
km
Stn Press Definition
kPa
Hmdx Definition


Wind Chill Definition


Weather Definition


TIME
00:30 Legend Double Dagger 12.6 12.3 98 19 27 10.0 100.58     Drizzle
01:30 Legend Double Dagger 12.2 12.1 99 19 30 4.8 100.58     Drizzle,Fog
02:30 Legend Double Dagger 11.6 11.6 100 19 25 2.0 100.60     Drizzle,Fog
03:30 Legend Double Dagger 11.9 11.9 100 19 29 2.4 100.59     Drizzle,Fog
04:30 Legend Double Dagger 11.9 11.9 100 19 30 4.8 100.60     Drizzle,Fog
05:30 Legend Double Dagger 12.2 12.2 100 19 31 6.4 100.63     Fog
06:30 Legend Double Dagger 12.6 12.5 99 19 28 10.0 100.66     LegendNANA
07:30 Legend Double Dagger 12.7 12.2 97 19 33 10.0 100.68     LegendNANA
08:30 Legend Double Dagger 13.7 12.6 93 19 32 10.0 100.70     Cloudy
09:30 Legend Double Dagger 15.2 12.7 85 20 37 10.0 100.68     LegendNANA
10:30 Legend Double Dagger 16.2 12.6 79 18 34 10.0 100.67     LegendNANA
11:30 Legend Double Dagger 17.1 12.9 76 18 44 10.0 100.63     Mostly Cloudy
12:30 Legend Double Dagger 16.9 12.5 75 18 34 10.0 100.61     LegendNANA
13:30 Legend Double Dagger 17.3 12.7 74 19 41 10.0 100.62     LegendNANA
14:30 Legend Double Dagger 15.0 11.8 81 18 33 10.0 100.60     Mostly Cloudy
15:30 Legend Double Dagger 13.0 11.1 88 18 43 10.0 100.57     Drizzle
16:30 Legend Double Dagger 11.7 10.5 92 18 42 10.0 100.54     Drizzle
17:30 Legend Double Dagger 11.1 10.5 96 19 42 10.0 100.54     Cloudy
18:30 Legend Double Dagger 11.1 10.8 98 19 20 10.0 100.62     Rain
19:30 Legend Double Dagger 10.9 10.6 98 18 18 10.0 100.61     Rain
20:30 Legend Double Dagger 10.9 10.5 97 18 24 10.0 100.64     Rain
21:30 Legend Double Dagger 10.1 10.0 99 19 18 10.0 100.66     Drizzle
22:30 Legend Double Dagger 10.1 10.0 99 16 23 10.0 100.58     Drizzle
23:30 Legend Double Dagger 9.5 9.4 99 17 31 3.2 100.59     Drizzle,Fog

Notes on Data Quality.

Legend

  • E = Estimated
  • M = Missing
  • NA = Not Available
  • ‡ = Partner data that is not subject to review by the National Climate Archives
Date modified: